Terminal Aerodrome Forecast
Issued by NWS

Home | Current Version | Previous Version | Graphics & Text | Print | Product List | Glossary On
Versions: 1 2 3 4 5 6 7 8 9 10 11 12 13 14 15 16 17 18 19 20 21 22 23 24 25 26 27 28 29 30 31
953
FTUS43 KABR 072325
TAFATY
TAF
KATY 072325Z 0800/0824 33029G42KT 4SM -SN BLSN OVC030
     FM080500 34026G37KT 5SM -SN BLSN OVC025
     FM081800 34025G32KT P6SM BKN250=

USA.gov is the U.S. government's official web portal to all federal, state and local government web resources and services.